Terminal Aerodrome Forecast
Issued by NWS Charleston, SC

Home | Current Version | Previous Version | Text Only | Print | Product List | Glossary On
Versions: 1 2 3 4 5 6 7 8 9 10 11 12 13 14 15
808
FTUS42 KCHS 281613 AAA
TAFCHS
TAF AMD
KCHS 281613Z 2816/2912 05009KT P6SM -RA FEW018 BKN035
     FM282000 05012G19KT P6SM -SHRA SCT025 BKN035
     FM290100 03010KT 6SM SHRA SCT010 BKN025
     FM290600 03011G17KT 5SM SHRA SCT008 OVC015=

USA.gov is the U.S. government's official web portal to all federal, state and local government web resources and services.